Flag for France Weather past 2 weeks in Lille, France

Now
64 °F

Broken clouds.


Feels Like: 64 °F
Forecast: 59 / 74 °F
Wind: 5 mph from West

Location: Lille Airport

Current Time: Jul 28, 2014 at 1:40:59 PM

Latest Report: Jul 28, 2014 at 1:00 PM


Visibility: N/A

Pressure: 29.92 "Hg

Humidity: 83%

Dew point: 59 °F

Location of LilleLocation

Historic Weather in Lille — Graph

°F

Lille temperature yesterday

Maximum temperature yesterday: 81 °F (at 2:00 PM)
Minimum temperature yesterday: 63 °F (at 3:00 AM)
Average temperature yesterday: 70 °F

Past Weeks' High & Low Weather Summary

 TemperatureHumidityPressure
High91 °F (Jul 18, 2:30 PM)100% (Jul 16, 4:30 AM)30.18 "Hg (Jul 16, 4:30 AM)
Low55 °F (Jul 15, 1:30 AM)35% (Jul 24, 5:00 PM)29.74 "Hg (Jul 13, 5:30 PM)
Average70 °F74%29.98 "Hg
* Reported Jul 13 12:00 Noon — Jul 28 12:30 PM, Lille, Weather by CustomWeather, © 2014

Note: Actual official high and low records may vary slightly from our data, if they occured in-between our weather recording intervals... More about our weather records

Advertising

Lille weather history for previous 24 hours

 ConditionsComfort  
Time TempWeatherWind HumidityBarometerVisibility
12:30 PM
Jul 28
63 °FBroken clouds.2 mph83%29.92 "HgN/A
12:00 PM63 °FLight rain. More clouds than sun.5 mph88%29.92 "HgN/A
11:30 AM61 °FLight rain. Low clouds.8 mph94%29.92 "HgN/A
11:00 AM61 °FLight rain. More clouds than sun.N/A94%29.92 "HgN/A
10:30 AM61 °FLight rain. Cloudy.8 mph100%29.92 "Hg2 mi
10:00 AM63 °FLight rain. More clouds than sun.3 mph94%29.92 "Hg3 mi
9:30 AM63 °FLight rain. More clouds than sun.2 mph94%29.92 "Hg3 mi
9:00 AM63 °FLight rain. More clouds than sun.6 mph94%29.89 "Hg3 mi
8:30 AM63 °FLight rain. Mostly cloudy.8 mph94%29.89 "Hg4 mi
8:00 AM61 °FLight rain. Mostly cloudy.9 mph100%29.89 "Hg4 mi
7:30 AM63 °FLight rain. Mostly cloudy.10 mph94%29.89 "Hg2 mi
7:00 AM64 °FLight rain. Passing clouds.2 mph100%29.89 "Hg1 mi
6:30 AM64 °FFog.2 mph100%29.89 "Hg1 mi
6:00 AM64 °FLight rain. Partly cloudy.2 mph100%29.89 "Hg1 mi
5:30 AM64 °FLight rain. Partly cloudy.5 mph100%29.89 "Hg1 mi
5:00 AM64 °FLight rain. Partly cloudy.2 mph94%29.89 "Hg1 mi
4:30 AM64 °FThunderstorms. Fog.3 mph100%29.92 "Hg1 mi
4:00 AM64 °FLight rain. Fog.2 mph100%29.92 "Hg1 mi
3:30 AM64 °FFog.2 mph100%29.92 "Hg1 mi
3:00 AM64 °FFog.6 mph100%29.92 "Hg1 mi
2:30 AM66 °FFog.6 mph94%29.92 "Hg1 mi
2:00 AM66 °FFog.6 mph94%29.95 "Hg1 mi
1:30 AM66 °FFog.6 mph94%29.95 "Hg2 mi
1:00 AM66 °FFog.3 mph100%29.98 "Hg1 mi
12:30 AM66 °FFog.3 mph94%29.98 "Hg1 mi
12:00 AM68 °FFog.1 mph94%29.98 "Hg2 mi
11:30 PM
Jul 27
68 °FPartly cloudy.5 mph88%29.98 "Hg5 mi
11:00 PM68 °FPassing clouds.2 mph88%29.98 "HgN/A
10:30 PM70 °FSunny.No wind83%29.98 "Hg10 mi
10:00 PM70 °FScattered showers. Clear.No wind83%29.98 "HgN/A
9:30 PM70 °FScattered showers. Clear.2 mph83%29.98 "HgN/A
9:00 PM72 °FSunny.2 mph78%29.98 "Hg10 mi
8:30 PM73 °FSunny.1 mph69%29.98 "Hg10 mi
8:00 PM73 °FSunny.2 mph69%29.98 "Hg10 mi
7:30 PM73 °FSunny.3 mph69%29.98 "Hg10 mi
7:00 PM75 °FPassing clouds.6 mph65%29.98 "HgN/A
6:30 PM75 °FPassing clouds.8 mph61%29.98 "HgN/A
6:00 PM75 °FPassing clouds.7 mph61%29.98 "HgN/A
5:30 PM75 °FSunny.9 mph69%29.98 "Hg10 mi
5:00 PM77 °FPassing clouds.3 mph61%29.98 "HgN/A
4:30 PM73 °FBroken clouds.2 mph74%30.01 "HgN/A
4:00 PM72 °FPartly sunny.5 mph73%30.01 "HgN/A
3:00 PM77 °FThunderstorms. Scattered clouds.2 mph57%30.01 "HgN/A
2:30 PM79 °FScattered clouds.1 mph58%29.98 "HgN/A
2:00 PM81 °FPassing clouds.5 mph54%30.01 "HgN/A
1:30 PM79 °FScattered clouds.2 mph58%30.01 "HgN/A
Weather by CustomWeather, © 2014

See weather overviewHow to use our weather pages